Time,TemperatureF,DewpointF,PressureIn,WindDirection,WindDirectionDegrees,WindSpeedMPH,WindSpeedGustMPH,Humidity,HourlyPrecipIn,Conditions,Clouds,dailyrainin,SolarRadiationWatts/m^2,SoftwareType,DateUTC
2013-10-19 00:02:00,50.0,11.0,-100.00,SE,125,4.0,4.0,20,0.00,,,0.00,0.000000,,2013-10-19 07:02:00,
2013-10-19 00:42:00,50.0,11.0,-100.00,SE,125,4.0,4.0,20,0.00,,,0.00,0.000000,,2013-10-19 07:42:00,
2013-10-19 00:52:00,50.0,11.0,-100.00,SE,125,4.0,4.0,20,0.00,,,0.00,0.000000,,2013-10-19 07:52:00,
2013-10-19 01:22:00,51.0,11.0,-100.00,ESE,120,3.0,4.0,20,0.00,,,0.00,0.000000,,2013-10-19 08:22:00,
2013-10-19 01:32:00,51.0,11.0,-100.00,ESE,120,3.0,4.0,20,0.00,,,0.00,0.000000,,2013-10-19 08:32:00,
2013-10-19 01:42:00,51.0,11.0,-100.00,ESE,120,3.0,4.0,20,0.00,,,0.00,0.000000,,2013-10-19 08:42:00,
2013-10-19 01:52:00,51.0,11.0,-100.00,ESE,120,3.0,4.0,20,0.00,,,0.00,0.000000,,2013-10-19 08:52:00,
2013-10-19 02:01:00,51.0,11.0,-100.00,ESE,120,3.0,4.0,20,0.00,,,0.00,0.000000,,2013-10-19 09:01:00,
2013-10-19 02:02:00,50.0,11.0,-100.00,SE,129,3.0,4.0,20,0.00,,,0.00,0.000000,,2013-10-19 09:02:00,
2013-10-19 02:43:00,50.0,11.0,-100.00,SE,129,3.0,4.0,20,0.00,,,0.00,0.000000,,2013-10-19 09:43:00,
2013-10-19 02:54:00,50.0,11.0,-100.00,SE,129,3.0,4.0,20,0.00,,,0.00,0.000000,,2013-10-19 09:54:00,
2013-10-19 03:02:00,50.0,11.0,-100.00,SE,125,2.0,4.0,20,0.00,,,0.00,0.000000,,2013-10-19 10:02:00,
2013-10-19 03:42:00,50.0,11.0,-100.00,SE,125,2.0,4.0,20,0.00,,,0.00,0.000000,,2013-10-19 10:42:00,
2013-10-19 03:53:00,50.0,11.0,-100.00,SE,125,2.0,4.0,20,0.00,,,0.00,0.000000,,2013-10-19 10:53:00,
2013-10-19 04:42:00,50.0,11.0,-100.00,ESE,115,3.0,4.0,20,0.00,,,0.00,0.000000,,2013-10-19 11:42:00,
2013-10-19 04:52:00,50.0,11.0,-100.00,ESE,115,3.0,4.0,20,0.00,,,0.00,0.000000,,2013-10-19 11:52:00,
2013-10-19 05:01:00,50.0,11.0,-100.00,ESE,115,3.0,4.0,20,0.00,,,0.00,0.000000,,2013-10-19 12:01:00,
2013-10-19 05:43:00,49.0,13.0,-100.00,ESE,105,4.0,5.0,23,0.00,,,0.00,0.000000,,2013-10-19 12:43:00,
2013-10-19 05:52:00,49.0,13.0,-100.00,ESE,105,4.0,5.0,23,0.00,,,0.00,0.000000,,2013-10-19 12:52:00,
2013-10-19 06:01:00,49.0,13.0,-100.00,ESE,105,4.0,5.0,23,0.00,,,0.00,0.000000,,2013-10-19 13:01:00,
2013-10-19 06:42:00,49.0,13.0,-100.00,ESE,110,3.0,5.0,23,0.00,,,0.00,0.000000,,2013-10-19 13:42:00,
2013-10-19 06:52:00,49.0,13.0,-100.00,ESE,110,3.0,5.0,23,0.00,,,0.00,0.000000,,2013-10-19 13:52:00,
2013-10-19 07:01:00,49.0,13.0,-100.00,ESE,110,3.0,5.0,23,0.00,,,0.00,0.000000,,2013-10-19 14:01:00,
2013-10-19 07:02:00,48.0,10.0,-100.00,ESE,108,3.0,5.0,21,0.00,,,-99.99,1.000000,,2013-10-19 14:02:00,
2013-10-19 07:42:00,48.0,10.0,-100.00,ESE,108,3.0,5.0,21,0.00,,,-99.99,1.000000,,2013-10-19 14:42:00,
2013-10-19 07:52:00,48.0,10.0,-100.00,ESE,108,3.0,5.0,21,0.00,,,-99.99,1.000000,,2013-10-19 14:52:00,
2013-10-19 08:02:00,52.0,12.0,-100.00,SE,134,2.0,5.0,20,0.00,,,0.00,34.000000,,2013-10-19 15:02:00,
2013-10-19 08:44:00,52.0,12.0,-100.00,SE,134,2.0,5.0,20,0.00,,,0.00,34.000000,,2013-10-19 15:44:00,
2013-10-19 08:55:00,52.0,12.0,-100.00,SE,134,2.0,5.0,20,0.00,,,0.00,34.000000,,2013-10-19 15:55:00,
2013-10-19 09:02:00,63.0,11.0,-100.00,NW,320,3.0,5.0,13,0.00,,,0.00,296.000000,,2013-10-19 16:02:00,
2013-10-19 09:43:00,63.0,11.0,-100.00,NW,320,3.0,5.0,13,0.00,,,0.00,296.000000,,2013-10-19 16:43:00,
2013-10-19 09:53:00,63.0,11.0,-100.00,NW,320,3.0,5.0,13,0.00,,,0.00,296.000000,,2013-10-19 16:53:00,
2013-10-19 10:02:00,66.0,14.0,-100.00,NW,309,3.0,7.0,13,0.00,,,0.00,546.000000,,2013-10-19 17:02:00,
2013-10-19 10:43:00,66.0,14.0,-100.00,NW,309,3.0,7.0,13,0.00,,,0.00,546.000000,,2013-10-19 17:43:00,
2013-10-19 10:52:00,66.0,14.0,-100.00,NW,309,3.0,7.0,13,0.00,,,0.00,546.000000,,2013-10-19 17:52:00,
2013-10-19 11:02:00,68.0,14.0,-100.00,NW,312,5.0,10.0,12,0.00,,,0.00,739.000000,,2013-10-19 18:02:00,
2013-10-19 11:42:00,68.0,14.0,-100.00,NW,312,5.0,10.0,12,0.00,,,0.00,739.000000,,2013-10-19 18:42:00,
2013-10-19 11:52:00,68.0,14.0,-100.00,NW,312,5.0,10.0,12,0.00,,,0.00,739.000000,,2013-10-19 18:52:00,
2013-10-19 12:02:00,70.0,15.0,-100.00,NW,304,6.0,10.0,12,0.00,,,0.00,870.000000,,2013-10-19 19:02:00,
2013-10-19 12:22:00,70.0,15.0,-100.00,NW,304,6.0,10.0,12,0.00,,,0.00,870.000000,,2013-10-19 19:22:00,
2013-10-19 12:32:00,70.0,15.0,-100.00,NW,304,6.0,10.0,12,0.00,,,0.00,870.000000,,2013-10-19 19:32:00,
2013-10-19 12:42:00,70.0,15.0,-100.00,NW,304,6.0,10.0,12,0.00,,,0.00,870.000000,,2013-10-19 19:42:00,
2013-10-19 12:52:00,70.0,15.0,-100.00,NW,304,6.0,10.0,12,0.00,,,0.00,870.000000,,2013-10-19 19:52:00,
2013-10-19 13:02:00,71.0,14.0,-100.00,NW,308,5.0,10.0,11,0.00,,,0.00,929.000000,,2013-10-19 20:02:00,
2013-10-19 13:42:00,71.0,14.0,-100.00,NW,308,5.0,10.0,11,0.00,,,0.00,929.000000,,2013-10-19 20:42:00,
2013-10-19 13:52:00,71.0,14.0,-100.00,NW,308,5.0,10.0,11,0.00,,,0.00,929.000000,,2013-10-19 20:52:00,
2013-10-19 14:02:00,72.0,15.0,-100.00,WNW,293,6.0,11.0,11,0.00,,,0.00,909.000000,,2013-10-19 21:02:00,
2013-10-19 14:44:00,72.0,15.0,-100.00,WNW,293,6.0,11.0,11,0.00,,,0.00,909.000000,,2013-10-19 21:44:00,
2013-10-19 14:54:00,72.0,15.0,-100.00,WNW,293,6.0,11.0,11,0.00,,,0.00,909.000000,,2013-10-19 21:54:00,
2013-10-19 15:02:00,73.0,15.0,-100.00,NNW,330,5.0,11.0,11,0.00,,,0.00,815.000000,,2013-10-19 22:02:00,
2013-10-19 15:43:00,73.0,15.0,-100.00,NNW,330,5.0,11.0,11,0.00,,,0.00,815.000000,,2013-10-19 22:43:00,
2013-10-19 15:53:00,73.0,15.0,-100.00,NNW,330,5.0,11.0,11,0.00,,,0.00,815.000000,,2013-10-19 22:53:00,
2013-10-19 16:02:00,73.0,15.0,-100.00,NW,321,4.0,10.0,11,0.00,,,0.00,650.000000,,2013-10-19 23:02:00,
2013-10-19 16:42:00,73.0,15.0,-100.00,NW,321,4.0,10.0,11,0.00,,,0.00,650.000000,,2013-10-19 23:42:00,
2013-10-19 16:52:00,73.0,15.0,-100.00,NW,321,4.0,10.0,11,0.00,,,0.00,650.000000,,2013-10-19 23:52:00,
2013-10-19 17:02:00,71.0,14.0,-100.00,WNW,291,4.0,10.0,11,0.00,,,0.00,428.000000,,2013-10-20 00:02:00,
2013-10-19 17:23:00,71.0,14.0,-100.00,WNW,291,4.0,10.0,11,0.00,,,0.00,428.000000,,2013-10-20 00:23:00,
2013-10-19 17:32:00,71.0,14.0,-100.00,WNW,291,4.0,10.0,11,0.00,,,0.00,428.000000,,2013-10-20 00:32:00,
2013-10-19 17:42:00,71.0,14.0,-100.00,WNW,291,4.0,10.0,11,0.00,,,0.00,428.000000,,2013-10-20 00:42:00,
2013-10-19 17:52:00,71.0,14.0,-100.00,WNW,291,4.0,10.0,11,0.00,,,0.00,428.000000,,2013-10-20 00:52:00,
2013-10-19 18:02:00,66.0,17.0,-100.00,NW,310,2.0,6.0,15,0.00,,,0.00,160.000000,,2013-10-20 01:02:00,
2013-10-19 18:42:00,66.0,17.0,-100.00,NW,310,2.0,6.0,15,0.00,,,0.00,160.000000,,2013-10-20 01:42:00,
2013-10-19 18:52:00,66.0,17.0,-100.00,NW,310,2.0,6.0,15,0.00,,,0.00,160.000000,,2013-10-20 01:52:00,
2013-10-19 19:02:00,57.0,22.0,-100.00,ESE,123,4.0,4.0,25,0.00,,,0.00,2.000000,,2013-10-20 02:02:00,
2013-10-19 19:42:00,57.0,22.0,-100.00,ESE,123,4.0,4.0,25,0.00,,,0.00,2.000000,,2013-10-20 02:42:00,
2013-10-19 19:52:00,57.0,22.0,-100.00,ESE,123,4.0,4.0,25,0.00,,,0.00,2.000000,,2013-10-20 02:52:00,
2013-10-19 20:02:00,-999.0,-99.9,-100.00,ESE,104,4.0,5.0,-999,-99.99,,,-99.99,0.000000,,2013-10-20 03:02:00,
2013-10-19 20:44:00,54.0,20.0,-100.00,ESE,104,4.0,5.0,26,0.00,,,0.00,0.000000,,2013-10-20 03:44:00,
2013-10-19 20:54:00,54.0,20.0,-100.00,ESE,104,4.0,5.0,26,0.00,,,0.00,0.000000,,2013-10-20 03:54:00,
2013-10-19 21:02:00,52.0,19.0,-100.00,ESE,109,4.0,5.0,27,0.00,,,0.00,0.000000,,2013-10-20 04:02:00,
2013-10-19 21:44:00,52.0,19.0,-100.00,ESE,109,4.0,5.0,27,0.00,,,0.00,0.000000,,2013-10-20 04:44:00,
2013-10-19 21:54:00,52.0,19.0,-100.00,ESE,109,4.0,5.0,27,0.00,,,0.00,0.000000,,2013-10-20 04:54:00,
2013-10-19 22:02:00,56.0,17.0,-100.00,SE,143,2.0,5.0,21,0.00,,,0.00,0.000000,,2013-10-20 05:02:00,
2013-10-19 22:43:00,56.0,17.0,-100.00,SE,143,2.0,5.0,21,0.00,,,0.00,0.000000,,2013-10-20 05:43:00,
2013-10-19 22:52:00,56.0,17.0,-100.00,SE,143,2.0,5.0,21,0.00,,,0.00,0.000000,,2013-10-20 05:52:00,
2013-10-19 23:02:00,56.0,14.0,-100.00,SE,136,3.0,5.0,19,0.00,,,0.00,0.000000,,2013-10-20 06:02:00,
2013-10-19 23:42:00,56.0,14.0,-100.00,SE,136,3.0,5.0,19,0.00,,,0.00,0.000000,,2013-10-20 06:42:00,
2013-10-19 23:52:00,56.0,14.0,-100.00,SE,136,3.0,5.0,19,0.00,,,0.00,0.000000,,2013-10-20 06:52:00,